Aeroporto :
LOGIN :

Iscrizione | Disclaimer

   EN    FR    IT 

 










Sommario :    VFR   VFR Marginale   IFR   IFR Intensivo   IFR Molto Intensivo
Visibilità : 
Base nubi : 
>= 8 km
>= 3000ft
5 / 8 km
1000 / 3000 ft
1500m / 5 km
500 / 1000 ft
800 / 1500m
200 / 500 ft
< 800m
< 200 ft
Simboli :   Temporali  Nebbia  Neve Forte  Precipitazioni Forti  Vento > 20 kt
SIGMETs :   Varie  Temporali  Ghiacco  Turbolenza  Onda orograficha  Ceneri Vulcaniche






- Altitudine del aeroporto : 1299 ft


EDTY - Adolf Würth

ULTIMO METAR :
  • 231520Z 23005KT 180V270 CAVOK 21/10 Q1008

METARs OBSOLETI :
  • 231450Z 25005KT 200V280 CAVOK 20/11 Q1008
  • 231420Z 30006KT 260V330 CAVOK 20/12 Q1009
  • 231350Z 30006KT 260V330 CAVOK 20/11 Q1009
  • 231320Z 28007KT 250V320 CAVOK 20/11 Q1009
  • 231250Z 27006KT 240V310 CAVOK 19/11 Q1009

TAF TAF EDTY
Valido dal 23 a 15 ore il 24 a 00 ore UTC


231400Z 2315/2324 28007KT CAVOK
BECMG 2316/2318 VRB03KT



MetMap, La meteo Aeronautica in un colpo d'occhio ! - Copyright ORBIFLY Dicembre 2007 - Disclaimer

ORBIFLY MET'MAP TEAM :

Programmazione e sviluppo : Alexandra Zaïnal
Concezione : Baudouin d'Aumeries
Aiuto per la programmazione : Marc-Olivier Méhu
Supporto tecnico e logistico : Manuel Goepfert
Aiuto per la traduzione : Arnaldo La Scala

Contatto : metmap@orbifly.com




FONTI E CREDITI :

   NOAA